Flag Weather past 2 weeks in Haarlem, Netherlands

Now
37 °F

Clear.


Feels Like: 29 °F
Forecast: 35 / 40 °F
Wind: 14 mph from East

Location: Amsterdam Schiphol Airport

Current Time: Nov 29, 2014 at 2:44:27 AM

Latest Report: Nov 29, 2014 at 1:55 AM


Visibility: 5 mi

Pressure: 29.89 "Hg

Humidity: 81%

Dew point: 32 °F

Location of HaarlemLocation

Historic Weather in Haarlem — Graph

°F

Haarlem temperature yesterday

Maximum temperature yesterday: 48 °F (at 2:25 PM)
Minimum temperature yesterday: 39 °F (at 11:55 PM)
Average temperature yesterday: 44 °F

Past Weeks' High & Low Weather Summary

 TemperatureHumidityPressure
High55 °F (Nov 23, 12:25 PM)100% (Nov 14, 1:55 AM)30.33 "Hg (Nov 14, 1:55 AM)
Low34 °F (Nov 25, 5:55 AM)67% (Nov 24, 1:25 PM)29.47 "Hg (Nov 16, 3:55 PM)
Average46 °F91%29.92 "Hg
* Reported Nov 14 1:25 AM — Nov 29 1:25 AM, Haarlem, Weather by CustomWeather, © 2014

Note: Actual official high and low records may vary slightly from our data, if they occured in-between our weather recording intervals... More about our weather records

Advertising

Haarlem weather history for previous 24 hours

 ConditionsComfort  
Time TempWeatherWind HumidityBarometerVisibility
1:25 AM
Nov 29
37 °FClear.14 mph81%29.89 "Hg5 mi
12:55 AM37 °FClear.12 mph87%29.89 "Hg5 mi
12:25 AM39 °FClear.13 mph81%29.89 "Hg6 mi
11:55 PM
Nov 28
39 °FClear.14 mph81%29.89 "Hg6 mi
11:25 PM41 °FPassing clouds.12 mph76%29.89 "HgN/A
10:55 PM41 °FPassing clouds.12 mph81%29.89 "HgN/A
10:25 PM41 °FPassing clouds.14 mph81%29.89 "HgN/A
9:55 PM43 °FPassing clouds.10 mph76%29.89 "HgN/A
9:25 PM43 °FPassing clouds.13 mph76%29.86 "HgN/A
8:55 PM43 °FPassing clouds.12 mph81%29.86 "HgN/A
8:25 PM43 °FClear.12 mph81%29.86 "Hg10 mi
7:55 PM43 °FPassing clouds.13 mph81%29.86 "HgN/A
7:25 PM43 °FPassing clouds.10 mph81%29.83 "HgN/A
6:55 PM45 °FPassing clouds.14 mph76%29.83 "HgN/A
6:25 PM45 °FPassing clouds.14 mph81%29.83 "HgN/A
5:55 PM45 °FClear.13 mph81%29.83 "Hg10 mi
5:25 PM45 °FClear.13 mph81%29.80 "Hg10 mi
4:55 PM45 °FClear.13 mph87%29.80 "Hg6 mi
4:25 PM45 °FPassing clouds.10 mph87%29.80 "HgN/A
3:55 PM46 °FPassing clouds.14 mph82%29.77 "HgN/A
3:25 PM46 °FPassing clouds.12 mph82%29.77 "HgN/A
2:55 PM48 °FSunny.13 mph82%29.77 "Hg10 mi
2:25 PM48 °FPassing clouds.12 mph82%29.77 "HgN/A
1:55 PM46 °FPassing clouds.14 mph87%29.77 "HgN/A
1:25 PM46 °FPassing clouds.14 mph87%29.77 "HgN/A
12:55 PM46 °FSunny.13 mph82%29.77 "Hg10 mi
12:25 PM46 °FClear.14 mph82%29.77 "Hg5 mi
11:55 AM45 °FLight rain. Clear.12 mph87%29.77 "Hg5 mi
11:25 AM45 °FLight rain. Passing clouds.10 mph87%29.77 "Hg6 mi
10:55 AM45 °FClear.13 mph87%29.77 "Hg6 mi
10:25 AM43 °FClear.13 mph93%29.77 "Hg5 mi
9:55 AM43 °FPassing clouds.12 mph93%29.77 "Hg4 mi
8:55 AM43 °FPassing clouds.14 mph93%29.74 "Hg3 mi
8:25 AM43 °FFog.10 mph93%29.74 "Hg2 mi
7:55 AM43 °FFog.13 mph100%29.74 "Hg1 mi
7:25 AM43 °FFog.9 mph100%29.74 "Hg1 mi
6:55 AM43 °FFog.12 mph100%29.74 "Hg1 mi
6:25 AM43 °FFog.9 mph100%29.74 "Hg2 mi
5:55 AM45 °FFog.9 mph93%29.74 "Hg3 mi
5:25 AM45 °FPassing clouds.9 mph93%29.71 "Hg4 mi
4:55 AM43 °FPassing clouds.7 mph93%29.71 "Hg4 mi
4:25 AM45 °FPartly cloudy.9 mph93%29.71 "Hg4 mi
3:55 AM45 °FPartly cloudy.10 mph93%29.71 "Hg4 mi
3:25 AM45 °FPassing clouds.12 mph93%29.74 "Hg4 mi
2:55 AM45 °FPassing clouds.9 mph93%29.71 "Hg4 mi
2:25 AM45 °FMostly cloudy.9 mph93%29.71 "Hg3 mi
Weather by CustomWeather, © 2014

See weather overviewHow to use our weather pages